Probability
0 0 0 0 0 0 0 0 0 0 0 0 0 0 0 0 0 0 0 0 3 3 3 0 0 0 3 13 19 19 13 6 6 0 0 0 0 0 0 0 0 0 0 0
0 0 0 0 0 0 0 0 0 0 0 0 0 0 0 0 0 0 0 0 0 0 0 0 0 3 3 3 3 10 10 0 0 0 0 0 0 0 0 0 0 0 0 0
0 0 0 0 0 0 0 0 0 0 0 0 0 0 0 0 0 0 0 0 0 0 0 0 0 0 0 0 0 0 0 0 0 0 0 0 0 0 0 0 0 0 0 0
0 0 0 0 0 0 0 0 0 0 0 0 0 0 0 0 0 0 0 0 0 0 0 0 0 0 0 0 0 0 0 0 0 0 0 0 0 0 0 0 0 0 0 0
0 0 0 0 0 0 0 0 0 0 0 0 0 0 0 0 0 0 0 0 0 0 0 0 0 0 0 0 0 0 0 0 0 0 0 0 0 0 0 0 0 0 0 0
0 0 0 0 0 0 0 0 0 0 0 0 0 0 0 0 0 0 0 0 0 0 0 0 0 0 0 0 0 0 0 0 0 0 0 0 0 0 0 0 0 0 0 0
0 0 0 0 0 0 0 0 0 0 0 0 0 0 0 0 0 0 0 0 0 0 0 0 0 0 0 0 0 0 0 0 0 0 0 0 0 0 0 0 0 0 0 0
0 0 0 0 0 0 0 0 0 0 0 0 0 0 0 0 0 0 0 0 0 0 0 0 0 0 0 0 0 0 0 0 0 0 0 0 0 0 0 0 0 0 0 0
0 0 0 0 0 0 0 0 0 0 0 0 0 0 0 0 0 0 0 0 0 0 0 0 0 0 0 0 0 0 0 0 0 0 0 0 0 0 0 0 0 0 0 0
0 0 0 0 0 0 0 0 0 0 0 0 0 0 0 0 0 0 0 0 0 0 0 0 0 0 0 0 0 0 0 0 0 0 0 0 0 0 0 0 0 0 0 0
0 0 0 0 0 0 0 0 0 0 0 0 0 0 0 0 0 0 0 0 0 0 0 0 0 0 0 0 0 0 0 0 0 0 0 0 0 0 0 0 0 0 0 0
0 0 0 0 0 0 0 0 0 0 0 0 0 0 0 0 0 0 0 0 0 0 0 0 0 0 0 0 0 0 0 0 0 0 0 0 0 0 0 0 0 0 0 0
0 0 0 0 0 0 0 0 0 0 0 0 0 0 0 0 0 0 0 0 0 0 0 0 0 0 0 0 0 0 0 0 0 0 0 0 0 0 0 0 0 0 0 0
0 0 0 0 0 0 0 0 0 0 0 0 0 0 0 0 0 0 0 0 0 0 0 0 0 0 0 0 0 0 0 0 0 0 0 0 0 0 0 0 0 0 0 0
0 0 0 0 0 0 0 0 0 0 0 0 0 0 0 0 0 0 0 0 0 0 0 0 0 0 0 0 0 0 0 0 0 0 0 0 0 0 0 0 0 0 0 0
0 0 0 0 0 0 0 0 0 0 0 0 0 0 0 0 0 0 0 0 0 0 0 0 0 0 0 0 0 0 0 0 0 0 0 0 0 0 0 0 0 0 0 0
0 0 0 0 0 0 0 0 0 0 0 0 0 0 0 0 0 0 0 0 0 0 0 0 0 0 0 0 0 0 0 0 0 0 0 0 0 0 0 0 0 0 0 0
0 0 0 0 0 0 0 0 0 0 0 0 0 0 0 0 0 0 0 0 0 0 0 0 0 0 0 0 0 0 0 0 0 0 0 0 0 0 0 0 0 0 0 0
0 0 0 0 0 0 0 0 0 0 0 0 0 0 0 0 0 0 0 0 0 0 0 0 0 0 0 0 0 0 0 0 0 0 0 0 0 0 0 0 0 0 0 0
0 0 0 0 0 0 0 0 0 0 0 0 0 0 0 0 0 0 0 0 0 0 0 0 0 0 0 0 0 0 0 0 0 0 0 0 0 0 0 0 0 0 0 0
0 0 0 0 0 0 0 0 0 0 0 0 0 0 0 0 0 0 0 0 0 0 0 0 0 0 0 0 0 0 0 0 0 0 0 0 0 0 0 0 0 0 0 0
0 0 0 0 0 0 0 0 0 0 0 0 0 0 0 0 0 0 0 0 0 0 0 0 0 0 0 0 0 0 0 0 0 0 0 0 0 0 0 0 0 0 0 0
0 0 0 0 0 0 0 0 0 0 0 0 0 0 0 0 0 0 0 0 0 0 0 0 0 0 0 0 0 0 0 0 0 0 0 0 0 0 0 0 0 0 0 0
0 0 0 0 0 0 0 0 0 0 0 0 0 0 0 0 0 0 0 0 0 0 0 0 0 0 0 0 0 0 0 0 0 0 0 0 0 0 0 0 0 0 0 0
0 0 0 0 0 0 0 0 0 0 0 0 0 0 0 0 0 0 0 0 0 0 0 0 0 0 0 0 0 0 0 0 0 0 0 0 0 0 0 0 0 0 0 0
0 0 0 0 0 0 0 0 0 0 0 0 0 0 0 0 0 0 0 0 0 0 0 0 0 0 0 0 0 0 0 0 0 0 0 0 0 0 0 0 0 0 0 0
0 0 0 0 0 0 0 0 0 0 0 0 0 0 0 0 0 0 0 0 0 0 0 0 0 0 0 0 0 0 0 0 0 0 0 0 0 0 0 0 0 0 0 0
Height
5752 5748 5746 5746 5746 5748 5751 5754 5758 5760 5763 5766 5767 5769 5769 5770 5771 5772 5772 5774 5775 5777 5778 5779 5781 5782 5782 5782 5782 5780 5778 5777 5775 5774 5773 5773 5772 5771 5770 5770 5769 5767 5766 5765
5753 5750 5748 5748 5748 5749 5752 5755 5758 5761 5764 5765 5767 5768 5769 5769 5770 5771 5772 5772 5773 5774 5774 5775 5776 5776 5776 5776 5776 5775 5773 5770 5769 5768 5767 5767 5766 5765 5764 5763 5763 5762 5761 5760
5755 5753 5752 5752 5752 5752 5754 5757 5760 5762 5765 5766 5767 5769 5770 5770 5770 5771 5771 5771 5772 5772 5772 5772 5772 5772 5772 5772 5771 5770 5768 5766 5765 5763 5763 5762 5761 5760 5758 5757 5756 5755 5755 5754
5759 5759 5757 5758 5756 5757 5758 5760 5762 5764 5766 5767 5769 5770 5771 5771 5771 5771 5772 5771 5771 5771 5771 5771 5770 5769 5769 5769 5768 5767 5765 5764 5762 5760 5759 5757 5756 5754 5753 5751 5750 5749 5748 5747
5764 5762 5761 5761 5761 5761 5763 5764 5766 5767 5769 5770 5771 5772 5772 5773 5773 5773 5773 5772 5772 5771 5771 5770 5770 5769 5768 5767 5765 5764 5762 5760 5758 5756 5754 5753 5751 5749 5747 5745 5744 5742 5741 5740
5770 5768 5766 5767 5766 5766 5768 5769 5769 5770 5771 5772 5773 5774 5774 5774 5774 5774 5774 5774 5773 5772 5771 5770 5769 5768 5766 5764 5763 5761 5758 5756 5754 5752 5750 5748 5746 5743 5741 5740 5738 5736 5735 5734
5775 5773 5771 5771 5770 5771 5773 5774 5773 5773 5773 5774 5774 5775 5776 5776 5775 5775 5775 5774 5773 5772 5771 5769 5768 5766 5764 5762 5759 5757 5755 5752 5750 5748 5745 5743 5741 5738 5736 5734 5732 5731 5729 5727
5780 5778 5778 5775 5774 5775 5775 5774 5775 5775 5775 5776 5777 5777 5777 5777 5777 5776 5775 5775 5774 5772 5770 5768 5766 5763 5761 5758 5756 5753 5751 5748 5746 5743 5741 5738 5736 5734 5731 5729 5727 5725 5723 5721
5784 5783 5780 5778 5777 5777 5777 5777 5777 5777 5777 5778 5778 5778 5778 5778 5778 5777 5776 5775 5773 5771 5769 5767 5764 5761 5758 5755 5752 5749 5747 5744 5741 5739 5736 5734 5731 5729 5727 5724 5722 5720 5717 5715
5786 5784 5782 5781 5780 5779 5779 5779 5778 5778 5779 5779 5779 5779 5779 5779 5778 5778 5776 5775 5773 5770 5768 5765 5762 5759 5756 5752 5749 5746 5743 5740 5738 5735 5732 5730 5727 5725 5722 5720 5717 5715 5712 5710
5789 5787 5784 5783 5782 5781 5780 5780 5780 5780 5780 5780 5780 5780 5780 5780 5779 5778 5776 5775 5772 5770 5767 5764 5761 5757 5754 5750 5747 5743 5740 5737 5734 5731 5729 5726 5723 5721 5718 5716 5713 5710 5708 5705
5791 5788 5786 5784 5783 5781 5781 5780 5780 5780 5780 5780 5780 5780 5780 5780 5779 5778 5776 5774 5772 5769 5766 5763 5760 5756 5752 5749 5745 5741 5738 5734 5731 5728 5726 5723 5720 5718 5715 5713 5710 5707 5704 5702
5792 5789 5786 5784 5783 5781 5781 5781 5780 5780 5780 5780 5780 5780 5780 5779 5779 5777 5776 5774 5771 5769 5766 5762 5759 5755 5751 5747 5743 5740 5736 5733 5729 5726 5724 5721 5718 5716 5713 5711 5708 5705 5703 5700
5793 5790 5787 5785 5783 5781 5780 5780 5780 5780 5780 5780 5780 5780 5779 5779 5778 5777 5775 5773 5771 5768 5765 5762 5759 5755 5751 5747 5743 5740 5736 5732 5729 5726 5723 5720 5717 5715 5712 5710 5707 5705 5702 5700
5794 5791 5788 5785 5782 5780 5779 5779 5779 5779 5779 5778 5779 5779 5779 5778 5778 5776 5775 5773 5771 5768 5765 5762 5759 5755 5751 5748 5744 5741 5737 5733 5730 5727 5724 5721 5718 5716 5713 5711 5708 5706 5703 5701
5795 5791 5788 5785 5782 5780 5778 5778 5778 5777 5777 5777 5777 5777 5778 5777 5777 5776 5775 5773 5771 5769 5766 5763 5760 5756 5753 5749 5745 5742 5739 5735 5732 5729 5726 5723 5721 5718 5716 5713 5710 5708 5706 5703
5796 5792 5788 5785 5782 5779 5777 5776 5776 5775 5775 5776 5776 5776 5776 5776 5776 5775 5774 5773 5771 5769 5766 5764 5761 5757 5754 5751 5747 5744 5741 5738 5735 5732 5729 5727 5724 5722 5719 5716 5714 5711 5709 5707
5795 5792 5788 5785 5782 5779 5777 5775 5774 5773 5773 5773 5773 5774 5774 5774 5774 5774 5773 5772 5771 5769 5767 5764 5762 5759 5756 5753 5750 5747 5744 5741 5739 5736 5733 5731 5728 5725 5723 5720 5718 5715 5713 5711
5795 5791 5788 5784 5781 5778 5776 5773 5771 5770 5770 5770 5770 5771 5772 5772 5773 5772 5772 5771 5770 5769 5767 5765 5763 5760 5758 5755 5753 5750 5747 5745 5742 5740 5737 5735 5732 5730 5727 5725 5722 5720 5718 5715
5794 5791 5787 5784 5781 5778 5775 5772 5770 5768 5767 5767 5767 5768 5769 5770 5770 5770 5770 5770 5770 5768 5767 5765 5764 5762 5759 5757 5755 5753 5750 5748 5745 5743 5741 5739 5736 5734 5731 5729 5727 5725 5722 5720
5792 5789 5786 5783 5780 5777 5774 5771 5769 5767 5765 5764 5764 5765 5766 5766 5767 5768 5768 5768 5768 5767 5766 5765 5764 5762 5760 5758 5756 5755 5753 5750 5748 5746 5744 5742 5740 5738 5736 5733 5731 5729 5727 5725
5788 5786 5784 5781 5778 5776 5773 5770 5768 5765 5763 5762 5762 5762 5762 5763 5764 5765 5766 5766 5766 5766 5765 5765 5763 5762 5761 5759 5758 5756 5754 5753 5751 5749 5747 5745 5743 5741 5739 5737 5735 5733 5731 5728
5784 5783 5781 5779 5776 5774 5771 5768 5766 5764 5762 5760 5759 5758 5759 5759 5760 5761 5762 5763 5764 5764 5764 5763 5763 5762 5761 5760 5758 5757 5756 5754 5752 5751 5749 5747 5746 5744 5742 5740 5738 5736 5734 5732
5779 5778 5777 5775 5773 5771 5768 5766 5764 5762 5760 5758 5757 5756 5755 5755 5756 5757 5759 5760 5761 5761 5762 5762 5761 5761 5760 5759 5758 5757 5756 5755 5754 5752 5751 5749 5747 5746 5744 5742 5740 5738 5736 5734
5773 5772 5772 5770 5769 5767 5765 5763 5761 5759 5757 5756 5754 5753 5752 5752 5752 5753 5754 5755 5757 5758 5759 5759 5759 5759 5759 5758 5758 5757 5756 5755 5754 5753 5751 5750 5748 5747 5745 5743 5742 5740 5738 5736
5766 5766 5765 5765 5763 5762 5760 5759 5757 5755 5753 5752 5751 5750 5749 5748 5748 5748 5750 5751 5752 5754 5755 5756 5756 5756 5756 5756 5756 5756 5755 5755 5754 5753 5752 5750 5749 5747 5746 5744 5743 5741 5739 5737
5757 5757 5758 5757 5757 5756 5755 5753 5752 5751 5749 5748 5747 5746 5745 5744 5743 5744 5745 5746 5747 5749 5750 5752 5753 5753 5754 5754 5754 5754 5754 5753 5753 5752 5751 5750 5749 5747 5746 5745 5743 5741 5740 5738
Wind_Speed
19 14 9 4 1 2 5 6 6 6 6 6 5 5 5 5 6 7 7 8 10 12 13 13 14 16 18 19 20 22 22 22 23 22 21 19 18 19 19 19 19 19 18 18
18 13 8 6 6 7 8 9 7 5 3 1 1 2 1 1 2 4 6 7 9 11 12 13 13 15 17 17 19 21 22 22 20 20 18 17 17 18 18 19 19 19 19 19
16 12 11 10 10 11 12 12 10 9 8 7 6 4 3 1 1 2 4 5 7 8 9 9 11 12 14 15 16 18 19 19 18 18 17 16 17 19 19 20 20 19 19 19
17 14 13 12 11 12 12 13 13 12 11 10 7 5 4 3 3 2 2 2 1 2 4 6 8 9 10 12 13 15 16 17 18 18 18 18 19 19 20 20 20 20 19 19
19 16 16 13 13 13 13 13 13 11 10 9 8 6 5 4 4 4 3 3 3 3 3 4 5 7 9 11 13 14 16 17 18 18 19 19 19 19 20 20 20 20 19 19
20 18 16 14 13 13 13 12 10 9 9 8 6 5 5 5 5 5 4 4 4 4 5 6 8 9 11 13 14 16 17 18 19 19 19 20 19 19 19 19 20 20 20 20
20 18 17 15 13 12 11 10 9 8 8 7 6 6 6 6 5 5 5 6 6 7 8 9 11 12 13 15 16 17 18 18 19 19 19 19 19 19 19 19 19 19 19 20
18 17 16 14 12 11 10 9 8 8 7 7 7 7 6 6 5 5 6 7 8 9 11 12 13 14 15 16 17 18 18 19 19 18 18 18 18 18 18 18 19 19 19 19
15 15 14 12 10 9 8 7 7 6 6 7 6 5 5 5 5 6 7 8 10 12 13 14 15 15 16 17 17 18 18 18 18 17 17 17 17 17 17 18 18 19 19 19
13 12 11 10 9 9 7 6 5 5 6 5 5 4 4 4 5 6 8 9 11 13 15 15 15 16 16 17 17 17 17 16 16 16 16 16 16 17 17 17 17 18 18 18
13 11 9 8 7 6 5 4 4 4 4 3 3 3 3 3 5 7 8 10 12 14 15 15 16 16 17 17 17 16 16 15 15 14 14 15 15 15 15 16 16 16 16 16
12 10 7 5 4 2 2 2 2 2 2 2 2 2 2 3 5 7 9 12 13 14 15 16 16 17 17 17 17 16 15 14 14 13 13 13 13 13 14 14 14 14 13 14
13 11 9 6 4 2 1 1 0 1 1 1 1 1 1 3 6 8 10 12 14 15 16 16 17 17 17 17 16 16 15 14 13 13 13 12 12 12 12 12 12 11 11 11
16 12 10 9 5 3 2 2 2 3 3 3 3 2 1 3 6 8 10 12 14 15 16 17 17 17 17 17 16 16 15 15 14 14 13 12 12 11 11 11 10 10 11 11
19 16 13 11 8 5 4 4 4 4 5 5 5 5 4 4 6 8 10 12 14 15 16 16 17 17 17 17 17 16 16 16 15 15 14 13 13 12 12 12 11 11 11 11
19 18 16 13 11 7 4 6 6 6 7 7 7 7 6 5 6 7 9 11 13 14 15 16 16 17 17 17 17 17 17 17 16 16 15 15 15 15 14 14 14 13 13 12
19 19 18 16 13 11 6 6 7 9 10 9 9 9 8 7 6 7 8 10 12 13 15 15 15 16 16 17 17 18 17 17 17 17 17 17 17 17 17 16 16 15 15 14
18 19 18 18 16 13 10 7 8 9 11 12 12 11 10 9 8 7 8 9 11 12 13 14 14 15 16 16 17 17 17 17 17 17 17 17 17 17 18 18 17 17 17 16
17 18 19 19 18 17 15 12 9 9 10 12 13 13 13 11 10 8 8 8 10 10 11 12 12 13 14 15 16 16 16 16 16 16 16 16 17 17 18 18 18 18 18 17
15 17 18 19 19 18 17 15 12 9 10 11 12 13 14 13 11 10 8 8 8 9 9 10 10 11 12 13 14 14 15 15 15 15 15 15 15 16 17 17 17 17 18 18
14 16 17 19 19 18 18 18 16 12 9 10 11 13 13 13 13 12 10 8 8 8 8 8 8 9 9 10 11 12 13 13 13 13 13 14 14 15 15 16 16 16 17 17
13 15 16 18 19 19 18 18 18 16 12 10 11 12 14 14 14 13 12 10 9 8 8 7 7 7 8 8 9 10 10 11 11 12 12 12 13 13 13 14 14 15 15 15
14 14 15 17 18 19 19 19 18 18 15 12 10 11 13 14 15 15 14 13 11 9 8 7 7 6 6 6 7 7 8 9 9 10 11 11 12 12 12 12 13 13 13 14
16 15 15 16 17 18 19 19 19 18 17 15 12 11 11 13 15 15 15 15 13 11 9 8 8 7 6 6 5 5 6 6 7 8 9 10 10 11 11 11 11 12 12 12
19 17 16 17 17 18 19 20 20 20 19 17 15 13 12 13 14 15 16 16 15 14 12 10 9 8 7 6 5 5 4 5 6 7 8 9 9 10 10 11 11 11 11 11
22 20 19 19 18 18 19 20 20 21 21 19 18 16 14 13 13 15 16 17 17 16 15 13 12 11 9 8 7 6 5 5 5 6 7 8 9 9 9 10 10 10 10 10
26 24 23 21 20 20 20 21 21 22 22 21 20 19 17 15 13 14 16 17 18 19 18 16 15 14 12 11 10 8 8 7 7 7 7 8 8 9 9 8 9 9 9 10
Wind_Direction
347 349 352 355 43 173 178 182 181 197 230 263 284 270 270 272 266 260 261 264 262 260 253 255 257 257 260 263 268 274 278 279 280 280 279 278 283 287 288 288 288 285 282 279
1 8 27 48 77 107 133 139 141 144 148 157 132 145 218 237 250 267 261 263 266 267 266 265 265 267 271 273 274 275 278 281 286 292 289 290 296 294 294 293 290 287 285 282
17 32 49 66 79 89 110 119 120 120 116 115 111 117 117 97 2 303 277 273 270 273 278 274 273 274 276 276 278 281 284 291 297 301 300 299 300 298 296 294 291 288 285 282
40 46 57 73 77 92 106 112 115 118 119 114 111 100 92 80 52 14 326 328 305 288 287 284 281 285 281 285 287 288 291 294 297 299 301 301 300 299 296 295 294 291 287 282
44 47 62 73 82 91 98 105 116 114 114 109 104 92 87 77 62 54 47 42 36 15 348 327 310 301 296 295 296 297 297 298 299 301 302 301 300 299 297 296 296 294 291 286
48 54 63 71 84 93 100 104 113 109 109 106 104 98 94 82 67 56 48 39 22 3 346 332 322 316 309 305 303 303 303 303 302 302 303 302 301 301 300 299 298 296 292 288
52 56 63 75 86 95 100 101 103 104 110 110 108 109 98 80 62 45 31 18 6 354 343 335 328 322 316 312 309 307 306 305 305 304 304 303 302 302 301 300 299 297 293 289
50 53 60 71 77 87 93 91 94 96 103 109 111 109 93 72 57 39 25 10 357 347 340 335 332 327 322 318 314 311 308 307 306 305 304 303 303 303 301 301 301 299 296 292
48 52 56 64 72 79 84 89 91 90 101 114 110 105 86 66 47 28 15 1 351 345 341 338 336 332 328 324 320 316 312 310 308 307 307 306 305 305 303 303 303 303 300 296
44 48 55 64 71 75 82 82 91 99 107 113 106 101 84 55 33 18 8 358 351 346 343 342 341 340 337 333 329 324 319 314 311 310 310 310 309 308 307 307 308 307 304 301
36 43 48 54 64 73 78 78 87 97 105 117 113 105 78 44 23 12 4 357 352 349 348 348 347 346 343 339 335 331 326 322 320 318 317 317 316 315 314 315 314 313 311 310
24 26 29 34 42 60 75 80 96 91 96 118 138 119 63 26 14 7 1 357 356 355 354 353 352 350 348 346 344 342 339 335 333 331 330 328 326 325 324 324 325 325 324 323
22 22 23 22 20 20 30 26 263 208 217 226 208 203 13 5 4 4 2 359 358 358 358 357 356 356 356 356 356 355 355 354 352 350 347 345 343 341 340 340 340 342 343 343
23 19 17 10 358 334 291 265 262 251 247 249 244 242 297 344 355 1 1 0 360 1 1 1 2 4 5 6 7 9 10 10 8 7 6 6 5 4 3 2 2 2 4 6
21 21 16 8 357 331 281 247 249 255 252 251 249 250 272 316 341 354 359 360 1 2 3 5 8 10 13 16 19 20 21 22 22 23 24 25 24 24 23 22 22 21 21 24
15 18 17 13 4 347 301 255 251 255 255 255 257 258 267 292 321 341 353 358 1 3 5 8 12 16 20 24 27 29 30 31 32 34 36 38 38 38 37 36 37 37 37 38
7 11 14 13 9 1 335 282 265 260 258 261 263 260 262 277 299 325 342 353 358 2 5 10 15 20 25 29 31 33 34 36 38 40 42 43 43 43 43 43 43 45 46 47
0 4 7 9 9 5 352 321 285 271 261 260 261 260 260 267 282 304 325 340 350 357 2 8 15 23 27 31 33 35 36 38 39 41 43 44 45 46 46 46 48 50 51 52
352 357 0 3 5 7 4 351 320 287 273 266 259 257 257 261 269 286 306 325 339 349 356 3 12 21 27 32 34 35 35 36 38 40 42 44 46 47 49 50 51 52 53 54
341 347 351 355 359 3 4 1 350 321 287 272 263 258 256 257 261 271 288 308 324 336 347 355 5 15 23 28 32 33 33 33 35 38 40 43 45 47 48 49 50 50 51 52
327 335 341 345 349 353 358 0 358 346 320 288 271 264 259 256 257 263 274 288 302 317 331 342 354 6 15 22 27 30 30 31 33 36 39 41 43 44 46 47 48 48 48 49
309 320 328 334 338 342 347 351 355 354 341 316 288 273 263 257 256 258 265 274 284 296 311 323 336 350 1 11 20 25 27 29 32 34 36 37 37 38 40 41 42 43 43 44
291 303 314 322 328 332 336 340 344 348 348 337 312 287 270 260 256 256 259 263 269 278 289 301 313 328 339 352 6 15 20 24 27 29 31 31 31 32 33 34 35 35 36 36
277 287 298 308 316 321 325 328 332 336 340 341 329 307 285 268 259 256 256 256 258 263 271 281 292 303 313 324 341 355 4 12 16 19 21 22 22 23 25 26 28 29 29 29
268 276 284 293 301 308 314 318 321 324 328 332 331 323 303 280 266 258 255 254 253 255 259 265 274 283 291 299 309 319 330 346 358 3 6 9 11 14 17 19 20 21 22 22
262 268 275 281 288 295 301 307 311 314 318 321 324 322 317 299 275 262 256 253 251 251 252 255 261 268 275 280 285 290 295 307 324 337 346 352 356 0 4 7 10 13 14 15
259 263 268 273 278 284 290 295 299 303 308 312 314 317 315 308 292 270 259 254 252 250 250 251 253 258 263 268 272 275 278 285 296 309 320 330 337 342 347 352 358 4 7 9